CZ-6A DEB

Satellite information

Favourite Embed

Satellite Type and Status

DEBRISIN ORBIT

Key statistics

Satellite CZ-6A DEB at a glance.

Uptime

1128

Days in orbit

Revolutions

≈ 14.1

Per day

Orbit

SSO

Sun Synchronous Orbit

Inclination

98.8

Latest

Satellite identification and parameters

Extended collection of information and parameters for CZ-6A DEB.

Object identification

Identified? True

Debris? True

Object name: CZ-6A DEB

International designator: 2022-151NR

Object number (NORAD): 54615

Object ID (CCSDS): 54615

Country: PEOPLES REPUBLIC OF CHINA (PRC)

Current information (Y/N): Y

RCS size: SMALL

Orbital parameters

Period: 102.114 minutes

Inclination: 98.8366 deg

SMA: 7236.845 km

Apoapsis: 899.47 km

Periapsis: 817.951 km

RAAN: 341.3467 deg

Eccentricy: 0.00563223

Argument of periapsis: 129.5473 deg

Mean anomaly: 231.0694 deg

Mean motion: 14.10193847 rev/day

Mean motion (dot): 0.00001352 rev/day2

B* drag term: 0.00077650419 1/REarth

Two-line elements (TLE)

Creation date: Dec. 12, 2025, 10:14 a.m.

Reference frame: TEME

Reference center: EARTH

Epoch: Dec. 12, 2025, 5:41 a.m. UTC

TLE line 0: 0 CZ-6A DEB

TLE line 1: 1 54615U 22151NR 25346.23715487 .00001352 00000-0 77650-3 0 9998

TLE line 2: 2 54615 98.8366 341.3467 0056322 129.5473 231.0694 14.10193847157792

Live tracking on map

Real-time ground track for satellite CZ-6A DEB.

In-orbit conjunctions

A list of the most updated potential collisions computed for object CZ-6A DEB.

Target Orbit TCA Probability of collision Miss distance Type
SCOUT A R/B LEO 2025-01-31 13:25:06 0.0003093127 134.0 (m) ROCKET BODY
FENGYUN 1C DEB SSO 2024-11-16 13:02:29 0.000165436 463.0 (m) DEBRIS

Associated space launch

Chinese satellite reported for atmospheric/ocean/environmental/spatial parameter research purposes, details TBD.

CZ-6A DEB was lifted into orbit during the mission ‘Long March 6A | Yunhai 3’, on board a Long March 6A space rocket.

The launch took place on Nov. 11, 2022, 10:52 p.m. from Launch Complex 9A.

For more information about the launch, click the button.

Launch to space Long March 6A | Yunhai 3
Long March 6A | Yunhai 3

Agency: N/A

Status: Launch Successful

Launch date: Nov. 11, 2022, 10:52 p.m. UTC

Rocket: Long March 6A

Launch pad: Launch Complex 9A

Location: Taiyuan Satellite Launch Center, People's Republic of China

...

Latest news about this satellite

There are no fresh news available about this satellite. Check back as we update our databases every day.


Newsletter sign-up

Weekly statistics, charts and insights to help you stay on top of the space industry.